Starlink 31634

operational
NORAD ID: 59330 Int'l Des: 2024-057 Owner: SPXS Country: US Constellation: starlink
LEOCIRCULAR

Starlink 31634について

説明を読み込み中...

リアルタイム位置

3D地球を読み込み中...

次回通過

高度履歴

Altitude vs Time

uPlot chart will show altitude changes over time

軌道要素

1 59330U 24057L 25306.36352822 .00000869 00000-0 41113-4 0 9992
2 59330 43.0001 186.3612 0001164 277.1748 82.8971 15.27580681 90361
Epoch: Nov 2, 2025 • Age: 24 hours

現在のステータス

高度 485.1 km
速度 7.63 km/s
衛星直下点 35.12°N, 58.81°E
打ち上げ日 Mar 25, 2024
運用期間 1.6 years
タイプ internet

技術仕様

分類 Payload
質量 730.00 kg
乾燥質量 700.00 kg
総質量 730.00 kg
長さ 0.30 m
直径 4.10 m
スパン 29.00 m
形状 Box + pan
製造者 SPXS
バスタイプ Starlink V2M
フェーズステータス In Orbit
所有者/国 SPXS/US

大規模コンステレーション

Loading constellations...